owner,sensor,date,latitude,longitude,vertical_datum,sea_water_practical_salinity,qcFlag 
SCCF RECON,ioos:station:SCCF:51:1,2011-09-01T00:00:00Z,26.5545,-82.1715,1.76,32.5,1111122 
SCCF RECON,ioos:station:SCCF:51:1,2011-09-01T01:00:00Z,26.5545,-82.1715,1.692,33.45,1111122 
SCCF RECON,ioos:station:SCCF:51:1,2011-09-01T02:00:00Z,26.5545,-82.1715,1.669,32.35,1111122 
SCCF RECON,ioos:station:SCCF:51:1,2011-09-01T03:00:00Z,26.5545,-82.1715,1.71,31.75,1111122 
SCCF RECON,ioos:station:SCCF:51:1,2011-09-01T04:00:00Z,26.5545,-82.1715,1.808,32.06,1111122 
SCCF RECON,ioos:station:SCCF:51:1,2011-09-01T05:00:00Z,26.5545,-82.1715,1.96,34.27,1111122 
SCCF RECON,ioos:station:SCCF:51:1,2011-09-01T06:00:00Z,26.5545,-82.1715,2.1,33.92,1111122 
SCCF RECON,ioos:station:SCCF:51:1,2011-09-01T07:00:00Z,26.5545,-82.1715,2.17,34.11,1111122 
SCCF RECON,ioos:station:SCCF:51:1,2011-09-01T08:00:00Z,26.5545,-82.1715,2.14,34.44,1111122 
SCCF RECON,ioos:station:SCCF:51:1,2011-09-01T09:00:00Z,26.5545,-82.1715,2.057,33.58,1111122 
SCCF RECON,ioos:station:SCCF:51:1,2011-09-01T10:00:00Z,26.5545,-82.1715,1.96,34.03,1111122 
SCCF RECON,ioos:station:SCCF:51:1,2011-09-01T11:00:00Z,26.5545,-82.1715,1.84,33.75,1111122 
SCCF RECON,ioos:station:SCCF:51:1,2011-09-01T12:00:00Z,26.5545,-82.1715,1.711,31.91,1111122 
SCCF RECON,ioos:station:SCCF:51:1,2011-09-01T13:00:00Z,26.5545,-82.1715,1.601,31.76,1111122 
SCCF RECON,ioos:station:SCCF:51:1,2011-09-01T14:00:00Z,26.5545,-82.1715,1.521,31.76,1111122 
SCCF RECON,ioos:station:SCCF:51:1,2011-09-01T15:00:00Z,26.5545,-82.1715,1.5,32.04,1111122 
SCCF RECON,ioos:station:SCCF:51:1,2011-09-01T16:00:00Z,26.5545,-82.1715,1.554,32.28,1111122 
SCCF RECON,ioos:station:SCCF:51:1,2011-09-01T17:00:00Z,26.5545,-82.1715,1.659,31.69,1111122 
SCCF RECON,ioos:station:SCCF:51:1,2011-09-01T18:00:00Z,26.5545,-82.1715,1.788,33.76,1111122 
SCCF RECON,ioos:station:SCCF:51:1,2011-09-01T19:00:00Z,26.5545,-82.1715,1.91,33.4,1111122 
SCCF RECON,ioos:station:SCCF:51:1,2011-09-01T20:00:00Z,26.5545,-82.1715,1.981,34.21,1111122 
SCCF RECON,ioos:station:SCCF:51:1,2011-09-01T21:00:00Z,26.5545,-82.1715,2.009,34.42,1111122 
SCCF RECON,ioos:station:SCCF:51:1,2011-09-01T22:00:00Z,26.5545,-82.1715,1.974,34.3,1111122 
SCCF RECON,ioos:station:SCCF:51:1,2011-09-01T23:00:00Z,26.5545,-82.1715,1.911,33.09,1111122 
SCCF RECON,ioos:station:SCCF:51:1,2011-09-02T00:00:00Z,26.5545,-82.1715,1.865,32.34,1111122 
SCCF RECON,ioos:station:SCCF:51:1,2011-09-02T01:00:00Z,26.5545,-82.1715,1.768,32.16,1111122 
SCCF RECON,ioos:station:SCCF:51:1,2011-09-02T02:00:00Z,26.5545,-82.1715,1.719,32.05,1111122 
SCCF RECON,ioos:station:SCCF:51:1,2011-09-02T03:00:00Z,26.5545,-82.1715,1.736,32.01,1111122 
SCCF RECON,ioos:station:SCCF:51:1,2011-09-02T04:00:00Z,26.5545,-82.1715,1.79,32.66,1111122 
SCCF RECON,ioos:station:SCCF:51:1,2011-09-02T05:00:00Z,26.5545,-82.1715,1.886,33.43,1111122 
SCCF RECON,ioos:station:SCCF:51:1,2011-09-02T06:00:00Z,26.5545,-82.1715,2.019,34.57,1111122 
SCCF RECON,ioos:station:SCCF:51:1,2011-09-02T07:00:00Z,26.5545,-82.1715,2.13,34.8,1111122 
SCCF RECON,ioos:station:SCCF:51:1,2011-09-02T08:00:00Z,26.5545,-82.1715,2.165,34.68,1111122 
SCCF RECON,ioos:station:SCCF:51:1,2011-09-02T09:00:00Z,26.5545,-82.1715,2.136,33.75,1111122 
SCCF RECON,ioos:station:SCCF:51:1,2011-09-02T10:00:00Z,26.5545,-82.1715,2.06,33.8,1111122 
SCCF RECON,ioos:station:SCCF:51:1,2011-09-02T11:00:00Z,26.5545,-82.1715,1.969,33.84,1111122 
SCCF RECON,ioos:station:SCCF:51:1,2011-09-02T12:00:00Z,26.5545,-82.1715,1.84,33.26,1111122 
SCCF RECON,ioos:station:SCCF:51:1,2011-09-02T13:00:00Z,26.5545,-82.1715,1.716,32.65,1111122 
SCCF RECON,ioos:station:SCCF:51:1,2011-09-02T14:00:00Z,26.5545,-82.1715,1.607,31.85,1111122 
SCCF RECON,ioos:station:SCCF:51:1,2011-09-02T15:00:00Z,26.5545,-82.1715,1.524,31.64,1111122 
SCCF RECON,ioos:station:SCCF:51:1,2011-09-02T16:00:00Z,26.5545,-82.1715,1.507,32.11,1111122 
SCCF RECON,ioos:station:SCCF:51:1,2011-09-02T17:00:00Z,26.5545,-82.1715,1.58,31.54,1111122 
SCCF RECON,ioos:station:SCCF:51:1,2011-09-02T18:00:00Z,26.5545,-82.1715,1.669,31.97,1111122 
SCCF RECON,ioos:station:SCCF:51:1,2011-09-02T19:00:00Z,26.5545,-82.1715,1.801,33.5,1111122 
SCCF RECON,ioos:station:SCCF:51:1,2011-09-02T20:00:00Z,26.5545,-82.1715,1.898,34.19,1111122 
SCCF RECON,ioos:station:SCCF:51:1,2011-09-02T21:00:00Z,26.5545,-82.1715,1.946,34.23,1111122 
SCCF RECON,ioos:station:SCCF:51:1,2011-09-02T22:00:00Z,26.5545,-82.1715,1.949,34.21,1111122 
SCCF RECON,ioos:station:SCCF:51:1,2011-09-02T23:00:00Z,26.5545,-82.1715,1.951,32.75,1111122 
SCCF RECON,ioos:station:SCCF:51:1,2011-09-03T00:00:00Z,26.5545,-82.1715,1.922,32.88,1111122 
SCCF RECON,ioos:station:SCCF:51:1,2011-09-03T01:00:00Z,26.5545,-82.1715,1.898,33.16,1111122 
SCCF RECON,ioos:station:SCCF:51:1,2011-09-03T02:00:00Z,26.5545,-82.1715,1.88,32.8,1111122 
SCCF RECON,ioos:station:SCCF:51:1,2011-09-03T03:00:00Z,26.5545,-82.1715,1.89,32.09,1111122 
SCCF RECON,ioos:station:SCCF:51:1,2011-09-03T04:00:00Z,26.5545,-82.1715,1.9,31.64,1111122 
SCCF RECON,ioos:station:SCCF:51:1,2011-09-03T05:00:00Z,26.5545,-82.1715,1.96,30.71,1111122 
SCCF RECON,ioos:station:SCCF:51:1,2011-09-03T06:00:00Z,26.5545,-82.1715,2.042,32.35,1111122 
SCCF RECON,ioos:station:SCCF:51:1,2011-09-03T07:00:00Z,26.5545,-82.1715,2.126,32.33,1111122 
SCCF RECON,ioos:station:SCCF:51:1,2011-09-03T08:00:00Z,26.5545,-82.1715,2.161,34.47,1111122 
SCCF RECON,ioos:station:SCCF:51:1,2011-09-03T09:00:00Z,26.5545,-82.1715,2.141,33.76,1111122 
SCCF RECON,ioos:station:SCCF:51:1,2011-09-03T10:00:00Z,26.5545,-82.1715,2.083,32.03,1111122 
SCCF RECON,ioos:station:SCCF:51:1,2011-09-03T11:00:00Z,26.5545,-82.1715,2.021,32.2,1111122 
SCCF RECON,ioos:station:SCCF:51:1,2011-09-03T12:00:00Z,26.5545,-82.1715,1.943,32.18,1111122 
SCCF RECON,ioos:station:SCCF:51:1,2011-09-03T13:00:00Z,26.5545,-82.1715,1.838,31.25,1111122 
SCCF RECON,ioos:station:SCCF:51:1,2011-09-03T14:00:00Z,26.5545,-82.1715,1.724,30.68,1111122 
SCCF RECON,ioos:station:SCCF:51:1,2011-09-03T15:00:00Z,26.5545,-82.1715,1.62,30.3,1111122 
SCCF RECON,ioos:station:SCCF:51:1,2011-09-03T16:00:00Z,26.5545,-82.1715,1.526,30.43,1111122 
SCCF RECON,ioos:station:SCCF:51:1,2011-09-03T17:00:00Z,26.5545,-82.1715,1.488,31.17,1111122 
SCCF RECON,ioos:station:SCCF:51:1,2011-09-03T18:00:00Z,26.5545,-82.1715,1.516,31.95,1111122 
SCCF RECON,ioos:station:SCCF:51:1,2011-09-03T19:00:00Z,26.5545,-82.1715,1.617,30.71,1111122 
SCCF RECON,ioos:station:SCCF:51:1,2011-09-03T20:00:00Z,26.5545,-82.1715,1.718,32.62,1111122 
SCCF RECON,ioos:station:SCCF:51:1,2011-09-03T21:00:00Z,26.5545,-82.1715,1.802,34.36,1111122 
SCCF RECON,ioos:station:SCCF:51:1,2011-09-03T22:00:00Z,26.5545,-82.1715,1.854,34.39,1111122 
SCCF RECON,ioos:station:SCCF:51:1,2011-09-03T23:00:00Z,26.5545,-82.1715,1.884,33.86,1111122 
SCCF RECON,ioos:station:SCCF:51:1,2011-09-04T00:00:00Z,26.5545,-82.1715,1.871,33.02,1111122 
SCCF RECON,ioos:station:SCCF:51:1,2011-09-04T01:00:00Z,26.5545,-82.1715,1.867,33.09,1111122 
SCCF RECON,ioos:station:SCCF:51:1,2011-09-04T02:00:00Z,26.5545,-82.1715,1.866,31.74,1111122 
SCCF RECON,ioos:station:SCCF:51:1,2011-09-04T03:00:00Z,26.5545,-82.1715,1.862,31.67,1111122 
SCCF RECON,ioos:station:SCCF:51:1,2011-09-04T04:00:00Z,26.5545,-82.1715,1.882,30.67,1111122 
SCCF RECON,ioos:station:SCCF:51:1,2011-09-04T05:00:00Z,26.5545,-82.1715,1.913,30.78,1111122 
SCCF RECON,ioos:station:SCCF:51:1,2011-09-04T06:00:00Z,26.5545,-82.1715,1.969,30.98,1111122 
SCCF RECON,ioos:station:SCCF:51:1,2011-09-04T07:00:00Z,26.5545,-82.1715,2.035,33.68,1111122 
SCCF RECON,ioos:station:SCCF:51:1,2011-09-04T08:00:00Z,26.5545,-82.1715,2.117,34.43,1111122 
SCCF RECON,ioos:station:SCCF:51:1,2011-09-04T09:00:00Z,26.5545,-82.1715,2.169,34.39,1111122 
SCCF RECON,ioos:station:SCCF:51:1,2011-09-04T10:00:00Z,26.5545,-82.1715,2.18,34.39,1111122 
SCCF RECON,ioos:station:SCCF:51:1,2011-09-04T11:00:00Z,26.5545,-82.1715,2.155,34.49,1111122 
SCCF RECON,ioos:station:SCCF:51:1,2011-09-04T12:00:00Z,26.5545,-82.1715,2.101,32.9,1111122 
SCCF RECON,ioos:station:SCCF:51:1,2011-09-04T13:00:00Z,26.5545,-82.1715,2.025,30.75,1111122 
SCCF RECON,ioos:station:SCCF:51:1,2011-09-04T14:00:00Z,26.5545,-82.1715,1.923,30.69,1111122 
SCCF RECON,ioos:station:SCCF:51:1,2011-09-04T15:00:00Z,26.5545,-82.1715,1.815,31.12,1111122 
SCCF RECON,ioos:station:SCCF:51:1,2011-09-04T16:00:00Z,26.5545,-82.1715,1.708,30.42,1111122 
SCCF RECON,ioos:station:SCCF:51:1,2011-09-04T17:00:00Z,26.5545,-82.1715,1.627,30.71,1111122 
SCCF RECON,ioos:station:SCCF:51:1,2011-09-04T18:00:00Z,26.5545,-82.1715,1.584,31.07,1111122 
SCCF RECON,ioos:station:SCCF:51:1,2011-09-04T19:00:00Z,26.5545,-82.1715,1.616,30.3,1111122 
SCCF RECON,ioos:station:SCCF:51:1,2011-09-04T20:00:00Z,26.5545,-82.1715,1.692,29.84,1111122 
SCCF RECON,ioos:station:SCCF:51:1,2011-09-04T21:00:00Z,26.5545,-82.1715,1.78,31.25,1111122 
SCCF RECON,ioos:station:SCCF:51:1,2011-09-04T22:00:00Z,26.5545,-82.1715,1.84,32.76,1111122 
SCCF RECON,ioos:station:SCCF:51:1,2011-09-04T23:00:00Z,26.5545,-82.1715,1.886,33.48,1111122 
SCCF RECON,ioos:station:SCCF:51:1,2011-09-05T00:00:00Z,26.5545,-82.1715,1.904,33.57,1111122 
SCCF RECON,ioos:station:SCCF:51:1,2011-09-05T01:00:00Z,26.5545,-82.1715,1.935,32.57,1111122 
SCCF RECON,ioos:station:SCCF:51:1,2011-09-05T02:00:00Z,26.5545,-82.1715,1.945,32.79,1111122 
SCCF RECON,ioos:station:SCCF:51:1,2011-09-05T03:00:00Z,26.5545,-82.1715,1.944,32.37,1111122 
SCCF RECON,ioos:station:SCCF:51:1,2011-09-05T04:00:00Z,26.5545,-82.1715,1.957,31.24,1111122 
SCCF RECON,ioos:station:SCCF:51:1,2011-09-05T05:00:00Z,26.5545,-82.1715,1.972,31.52,1111122 
SCCF RECON,ioos:station:SCCF:51:1,2011-09-05T06:00:00Z,26.5545,-82.1715,1.982,31.68,1111122 
SCCF RECON,ioos:station:SCCF:51:1,2011-09-05T07:00:00Z,26.5545,-82.1715,1.983,31.29,1111122 
SCCF RECON,ioos:station:SCCF:51:1,2011-09-05T08:00:00Z,26.5545,-82.1715,2.042,32.94,1111122 
SCCF RECON,ioos:station:SCCF:51:1,2011-09-05T09:00:00Z,26.5545,-82.1715,2.115,32.66,1111122 
SCCF RECON,ioos:station:SCCF:51:1,2011-09-05T10:00:00Z,26.5545,-82.1715,2.179,33.9,1111122 
SCCF RECON,ioos:station:SCCF:51:1,2011-09-05T11:00:00Z,26.5545,-82.1715,2.184,33.9,1111122 
SCCF RECON,ioos:station:SCCF:51:1,2011-09-05T12:00:00Z,26.5545,-82.1715,2.172,33.47,1111122 
SCCF RECON,ioos:station:SCCF:51:1,2011-09-05T13:00:00Z,26.5545,-82.1715,2.135,31.28,1111122 
SCCF RECON,ioos:station:SCCF:51:1,2011-09-05T14:00:00Z,26.5545,-82.1715,2.064,30.18,1111122 
SCCF RECON,ioos:station:SCCF:51:1,2011-09-05T15:00:00Z,26.5545,-82.1715,1.974,30.77,1111122 
SCCF RECON,ioos:station:SCCF:51:1,2011-09-05T16:00:00Z,26.5545,-82.1715,1.873,30.67,1111122 
SCCF RECON,ioos:station:SCCF:51:1,2011-09-05T17:00:00Z,26.5545,-82.1715,1.772,30.53,1111122 
SCCF RECON,ioos:station:SCCF:51:1,2011-09-05T18:00:00Z,26.5545,-82.1715,1.68,30.16,1111122 
SCCF RECON,ioos:station:SCCF:51:1,2011-09-05T19:00:00Z,26.5545,-82.1715,1.621,29.68,1111122 
SCCF RECON,ioos:station:SCCF:51:1,2011-09-05T20:00:00Z,26.5545,-82.1715,1.629,29.93,1111122 
SCCF RECON,ioos:station:SCCF:51:1,2011-09-05T21:00:00Z,26.5545,-82.1715,1.693,30.12,1111122 
SCCF RECON,ioos:station:SCCF:51:1,2011-09-05T22:00:00Z,26.5545,-82.1715,1.766,30.39,1111122 
SCCF RECON,ioos:station:SCCF:51:1,2011-09-05T23:00:00Z,26.5545,-82.1715,1.836,30.52,1111122 
SCCF RECON,ioos:station:SCCF:51:1,2011-09-06T00:00:00Z,26.5545,-82.1715,1.912,31.53,1111122 
SCCF RECON,ioos:station:SCCF:51:1,2011-09-06T01:00:00Z,26.5545,-82.1715,1.961,34.01,1111122 
SCCF RECON,ioos:station:SCCF:51:1,2011-09-06T02:00:00Z,26.5545,-82.1715,1.993,34.15,1111122 
SCCF RECON,ioos:station:SCCF:51:1,2011-09-06T03:00:00Z,26.5545,-82.1715,2.029,34.13,1111122 
SCCF RECON,ioos:station:SCCF:51:1,2011-09-06T04:00:00Z,26.5545,-82.1715,2.013,33.48,1111122 
SCCF RECON,ioos:station:SCCF:51:1,2011-09-06T05:00:00Z,26.5545,-82.1715,2.009,32.66,1111122 
SCCF RECON,ioos:station:SCCF:51:1,2011-09-06T06:00:00Z,26.5545,-82.1715,1.99,30.73,1111122 
SCCF RECON,ioos:station:SCCF:51:1,2011-09-06T07:00:00Z,26.5545,-82.1715,2.011,30.43,1111122 
SCCF RECON,ioos:station:SCCF:51:1,2011-09-06T08:00:00Z,26.5545,-82.1715,2.042,30.48,1111122 
SCCF RECON,ioos:station:SCCF:51:1,2011-09-06T09:00:00Z,26.5545,-82.1715,2.116,30.92,1111122 
SCCF RECON,ioos:station:SCCF:51:1,2011-09-06T10:00:00Z,26.5545,-82.1715,2.194,32.86,1111122 
SCCF RECON,ioos:station:SCCF:51:1,2011-09-06T11:00:00Z,26.5545,-82.1715,2.263,33.9,1111122 
SCCF RECON,ioos:station:SCCF:51:1,2011-09-06T12:00:00Z,26.5545,-82.1715,2.285,33.46,1111122 
SCCF RECON,ioos:station:SCCF:51:1,2011-09-06T13:00:00Z,26.5545,-82.1715,2.253,32.73,1111122 
SCCF RECON,ioos:station:SCCF:51:1,2011-09-06T14:00:00Z,26.5545,-82.1715,2.221,31.72,1111122 
SCCF RECON,ioos:station:SCCF:51:1,2011-09-06T15:00:00Z,26.5545,-82.1715,2.175,31.24,1111122 
SCCF RECON,ioos:station:SCCF:51:1,2011-09-06T16:00:00Z,26.5545,-82.1715,2.09,31.11,1111122 
SCCF RECON,ioos:station:SCCF:51:1,2011-09-06T17:00:00Z,26.5545,-82.1715,1.987,30.84,1111122 
SCCF RECON,ioos:station:SCCF:51:1,2011-09-06T18:00:00Z,26.5545,-82.1715,1.875,30.72,1111122 
SCCF RECON,ioos:station:SCCF:51:1,2011-09-06T19:00:00Z,26.5545,-82.1715,1.767,30.17,1111122 
SCCF RECON,ioos:station:SCCF:51:1,2011-09-06T20:00:00Z,26.5545,-82.1715,1.676,29.8,1111122 
SCCF RECON,ioos:station:SCCF:51:1,2011-09-06T21:00:00Z,26.5545,-82.1715,1.61,29.91,1111122 
SCCF RECON,ioos:station:SCCF:51:1,2011-09-06T22:00:00Z,26.5545,-82.1715,1.626,29.87,1111122 
SCCF RECON,ioos:station:SCCF:51:1,2011-09-06T23:00:00Z,26.5545,-82.1715,1.65,29.3,1111122 
SCCF RECON,ioos:station:SCCF:51:1,2011-09-07T00:00:00Z,26.5545,-82.1715,1.706,28.97,1111122 
SCCF RECON,ioos:station:SCCF:51:1,2011-09-07T01:00:00Z,26.5545,-82.1715,1.787,30.14,1111122 
SCCF RECON,ioos:station:SCCF:51:1,2011-09-07T02:00:00Z,26.5545,-82.1715,1.876,30.46,1111122 
SCCF RECON,ioos:station:SCCF:51:1,2011-09-07T03:00:00Z,26.5545,-82.1715,1.941,30.39,1111122 
SCCF RECON,ioos:station:SCCF:51:1,2011-09-07T04:00:00Z,26.5545,-82.1715,1.981,32.57,1111122 
SCCF RECON,ioos:station:SCCF:51:1,2011-09-07T05:00:00Z,26.5545,-82.1715,1.957,32.89,1111122 
SCCF RECON,ioos:station:SCCF:51:1,2011-09-07T06:00:00Z,26.5545,-82.1715,1.929,33.36,1111122 
SCCF RECON,ioos:station:SCCF:51:1,2011-09-07T07:00:00Z,26.5545,-82.1715,1.882,32.65,1111122 
SCCF RECON,ioos:station:SCCF:51:1,2011-09-07T08:00:00Z,26.5545,-82.1715,1.908,32.28,1111122 
SCCF RECON,ioos:station:SCCF:51:1,2011-09-07T09:00:00Z,26.5545,-82.1715,1.96,32.13,1111122 
SCCF RECON,ioos:station:SCCF:51:1,2011-09-07T10:00:00Z,26.5545,-82.1715,2.032,32.31,1111122 
SCCF RECON,ioos:station:SCCF:51:1,2011-09-07T11:00:00Z,26.5545,-82.1715,2.057,33.43,1111122 
SCCF RECON,ioos:station:SCCF:51:1,2011-09-07T12:00:00Z,26.5545,-82.1715,2.119,34.17,1111122 
SCCF RECON,ioos:station:SCCF:51:1,2011-09-07T13:00:00Z,26.5545,-82.1715,2.156,34.0,1111122 
SCCF RECON,ioos:station:SCCF:51:1,2011-09-07T14:00:00Z,26.5545,-82.1715,2.118,34.65,1111122 
SCCF RECON,ioos:station:SCCF:51:1,2011-09-07T15:00:00Z,26.5545,-82.1715,2.052,34.82,1111122 
SCCF RECON,ioos:station:SCCF:51:1,2011-09-07T16:00:00Z,26.5545,-82.1715,1.982,34.49,1111122 
SCCF RECON,ioos:station:SCCF:51:1,2011-09-07T17:00:00Z,26.5545,-82.1715,1.902,33.9,1111122 
SCCF RECON,ioos:station:SCCF:51:1,2011-09-07T18:00:00Z,26.5545,-82.1715,1.792,33.19,1111122 
SCCF RECON,ioos:station:SCCF:51:1,2011-09-07T19:00:00Z,26.5545,-82.1715,1.68,32.99,1111122 
SCCF RECON,ioos:station:SCCF:51:1,2011-09-07T20:00:00Z,26.5545,-82.1715,1.609,32.52,1111122 
SCCF RECON,ioos:station:SCCF:51:1,2011-09-07T21:00:00Z,26.5545,-82.1715,1.534,32.39,1111122 
SCCF RECON,ioos:station:SCCF:51:1,2011-09-07T22:00:00Z,26.5545,-82.1715,1.502,31.68,1111122 
SCCF RECON,ioos:station:SCCF:51:1,2011-09-07T23:00:00Z,26.5545,-82.1715,1.553,31.59,1111122 
SCCF RECON,ioos:station:SCCF:51:1,2011-09-08T00:00:00Z,26.5545,-82.1715,1.66,32.86,1111122 
SCCF RECON,ioos:station:SCCF:51:1,2011-09-08T01:00:00Z,26.5545,-82.1715,1.758,32.85,1111122 
SCCF RECON,ioos:station:SCCF:51:1,2011-09-08T02:00:00Z,26.5545,-82.1715,1.851,33.19,1111122 
SCCF RECON,ioos:station:SCCF:51:1,2011-09-08T03:00:00Z,26.5545,-82.1715,1.912,33.41,1111122 
SCCF RECON,ioos:station:SCCF:51:1,2011-09-08T04:00:00Z,26.5545,-82.1715,1.941,33.3,1111122 
SCCF RECON,ioos:station:SCCF:51:1,2011-09-08T05:00:00Z,26.5545,-82.1715,1.939,32.95,1111122 
SCCF RECON,ioos:station:SCCF:51:1,2011-09-08T06:00:00Z,26.5545,-82.1715,1.889,32.92,1111122 
SCCF RECON,ioos:station:SCCF:51:1,2011-09-08T07:00:00Z,26.5545,-82.1715,1.82,32.4,1111122 
SCCF RECON,ioos:station:SCCF:51:1,2011-09-08T08:00:00Z,26.5545,-82.1715,1.773,33.36,1111122 
SCCF RECON,ioos:station:SCCF:51:1,2011-09-08T09:00:00Z,26.5545,-82.1715,1.765,33.3,1111122 
SCCF RECON,ioos:station:SCCF:51:1,2011-09-08T10:00:00Z,26.5545,-82.1715,1.8,33.38,1111122 
SCCF RECON,ioos:station:SCCF:51:1,2011-09-08T11:00:00Z,26.5545,-82.1715,1.86,33.66,1111122 
SCCF RECON,ioos:station:SCCF:51:1,2011-09-08T12:00:00Z,26.5545,-82.1715,1.937,33.39,1111122 
SCCF RECON,ioos:station:SCCF:51:1,2011-09-08T13:00:00Z,26.5545,-82.1715,2.017,33.49,1111122 
SCCF RECON,ioos:station:SCCF:51:1,2011-09-08T14:00:00Z,26.5545,-82.1715,2.077,34.56,1111122 
SCCF RECON,ioos:station:SCCF:51:1,2011-09-08T15:00:00Z,26.5545,-82.1715,2.109,34.55,1111122 
SCCF RECON,ioos:station:SCCF:51:1,2011-09-08T16:00:00Z,26.5545,-82.1715,2.068,33.51,1111122 
SCCF RECON,ioos:station:SCCF:51:1,2011-09-08T17:00:00Z,26.5545,-82.1715,1.993,33.21,1111122 
SCCF RECON,ioos:station:SCCF:51:1,2011-09-08T18:00:00Z,26.5545,-82.1715,1.893,33.04,1111122 
SCCF RECON,ioos:station:SCCF:51:1,2011-09-08T19:00:00Z,26.5545,-82.1715,1.772,32.54,1111122 
SCCF RECON,ioos:station:SCCF:51:1,2011-09-08T20:00:00Z,26.5545,-82.1715,1.664,32.66,1111122 
SCCF RECON,ioos:station:SCCF:51:1,2011-09-08T21:00:00Z,26.5545,-82.1715,1.57,32.36,1111122 
SCCF RECON,ioos:station:SCCF:51:1,2011-09-08T22:00:00Z,26.5545,-82.1715,1.507,31.64,1111122 
SCCF RECON,ioos:station:SCCF:51:1,2011-09-08T23:00:00Z,26.5545,-82.1715,1.532,31.72,1111122 
SCCF RECON,ioos:station:SCCF:51:1,2011-09-09T00:00:00Z,26.5545,-82.1715,1.61,31.48,1111122 
SCCF RECON,ioos:station:SCCF:51:1,2011-09-09T01:00:00Z,26.5545,-82.1715,1.69,32.51,1111122 
SCCF RECON,ioos:station:SCCF:51:1,2011-09-09T02:00:00Z,26.5545,-82.1715,1.791,33.64,1111122 
SCCF RECON,ioos:station:SCCF:51:1,2011-09-09T03:00:00Z,26.5545,-82.1715,1.85,33.62,1111122 
SCCF RECON,ioos:station:SCCF:51:1,2011-09-09T04:00:00Z,26.5545,-82.1715,1.902,33.31,1111122 
SCCF RECON,ioos:station:SCCF:51:1,2011-09-09T05:00:00Z,26.5545,-82.1715,1.914,33.85,1111122 
SCCF RECON,ioos:station:SCCF:51:1,2011-09-09T06:00:00Z,26.5545,-82.1715,1.868,33.48,1111122 
SCCF RECON,ioos:station:SCCF:51:1,2011-09-09T07:00:00Z,26.5545,-82.1715,1.8,32.96,1111122 
SCCF RECON,ioos:station:SCCF:51:1,2011-09-09T08:00:00Z,26.5545,-82.1715,1.72,32.68,1111122 
SCCF RECON,ioos:station:SCCF:51:1,2011-09-09T09:00:00Z,26.5545,-82.1715,1.649,32.75,1111122 
SCCF RECON,ioos:station:SCCF:51:1,2011-09-09T10:00:00Z,26.5545,-82.1715,1.621,33.07,1111122 
SCCF RECON,ioos:station:SCCF:51:1,2011-09-09T11:00:00Z,26.5545,-82.1715,1.68,33.02,1111122 
SCCF RECON,ioos:station:SCCF:51:1,2011-09-09T12:00:00Z,26.5545,-82.1715,1.752,33.04,1111122 
SCCF RECON,ioos:station:SCCF:51:1,2011-09-09T13:00:00Z,26.5545,-82.1715,1.864,34.08,1111122 
SCCF RECON,ioos:station:SCCF:51:1,2011-09-09T14:00:00Z,26.5545,-82.1715,1.98,34.77,1111122 
SCCF RECON,ioos:station:SCCF:51:1,2011-09-09T15:00:00Z,26.5545,-82.1715,2.05,34.72,1111122 
SCCF RECON,ioos:station:SCCF:51:1,2011-09-09T16:00:00Z,26.5545,-82.1715,2.065,35.1,1111122 
SCCF RECON,ioos:station:SCCF:51:1,2011-09-09T17:00:00Z,26.5545,-82.1715,2.02,33.72,1111122 
SCCF RECON,ioos:station:SCCF:51:1,2011-09-09T18:00:00Z,26.5545,-82.1715,1.933,34.3,1111122 
SCCF RECON,ioos:station:SCCF:51:1,2011-09-09T19:00:00Z,26.5545,-82.1715,1.828,33.47,1111122 
SCCF RECON,ioos:station:SCCF:51:1,2011-09-09T20:00:00Z,26.5545,-82.1715,1.704,32.75,1111122 
SCCF RECON,ioos:station:SCCF:51:1,2011-09-09T21:00:00Z,26.5545,-82.1715,1.618,32.63,1111122 
SCCF RECON,ioos:station:SCCF:51:1,2011-09-09T22:00:00Z,26.5545,-82.1715,1.571,32.4,1111122 
SCCF RECON,ioos:station:SCCF:51:1,2011-09-09T23:00:00Z,26.5545,-82.1715,1.482,32.08,1111122 
SCCF RECON,ioos:station:SCCF:51:1,2011-09-10T00:00:00Z,26.5545,-82.1715,1.494,32.0,1111122 
SCCF RECON,ioos:station:SCCF:51:1,2011-09-10T01:00:00Z,26.5545,-82.1715,1.58,32.19,1111122 
SCCF RECON,ioos:station:SCCF:51:1,2011-09-10T02:00:00Z,26.5545,-82.1715,1.672,32.83,1111122 
SCCF RECON,ioos:station:SCCF:51:1,2011-09-10T03:00:00Z,26.5545,-82.1715,1.787,34.37,1111122 
SCCF RECON,ioos:station:SCCF:51:1,2011-09-10T04:00:00Z,26.5545,-82.1715,1.89,34.55,1111122 
SCCF RECON,ioos:station:SCCF:51:1,2011-09-10T05:00:00Z,26.5545,-82.1715,1.92,34.45,1111122 
SCCF RECON,ioos:station:SCCF:51:1,2011-09-10T06:00:00Z,26.5545,-82.1715,1.871,33.76,1111122 
SCCF RECON,ioos:station:SCCF:51:1,2011-09-10T07:00:00Z,26.5545,-82.1715,1.8,32.65,1111122 
SCCF RECON,ioos:station:SCCF:51:1,2011-09-10T08:00:00Z,26.5545,-82.1715,1.71,32.22,1111122 
SCCF RECON,ioos:station:SCCF:51:1,2011-09-10T09:00:00Z,26.5545,-82.1715,1.63,32.36,1111122 
SCCF RECON,ioos:station:SCCF:51:1,2011-09-10T10:00:00Z,26.5545,-82.1715,1.59,32.64,1111122 
SCCF RECON,ioos:station:SCCF:51:1,2011-09-10T11:00:00Z,26.5545,-82.1715,1.623,32.61,1111122 
SCCF RECON,ioos:station:SCCF:51:1,2011-09-10T12:00:00Z,26.5545,-82.1715,1.698,31.58,1111122 
SCCF RECON,ioos:station:SCCF:51:1,2011-09-10T13:00:00Z,26.5545,-82.1715,1.802,34.08,1111122 
SCCF RECON,ioos:station:SCCF:51:1,2011-09-10T14:00:00Z,26.5545,-82.1715,1.94,34.73,1111122 
SCCF RECON,ioos:station:SCCF:51:1,2011-09-10T15:00:00Z,26.5545,-82.1715,2.043,34.7,1111122 
SCCF RECON,ioos:station:SCCF:51:1,2011-09-10T16:00:00Z,26.5545,-82.1715,2.091,35.21,1111122 
SCCF RECON,ioos:station:SCCF:51:1,2011-09-10T17:00:00Z,26.5545,-82.1715,2.076,35.28,1111122 
SCCF RECON,ioos:station:SCCF:51:1,2011-09-10T18:00:00Z,26.5545,-82.1715,2.013,35.11,1111122 
SCCF RECON,ioos:station:SCCF:51:1,2011-09-10T19:00:00Z,26.5545,-82.1715,1.915,34.0,1111122 
SCCF RECON,ioos:station:SCCF:51:1,2011-09-10T20:00:00Z,26.5545,-82.1715,1.799,33.18,1111122 
SCCF RECON,ioos:station:SCCF:51:1,2011-09-10T21:00:00Z,26.5545,-82.1715,1.676,32.8,1111122 
SCCF RECON,ioos:station:SCCF:51:1,2011-09-10T22:00:00Z,26.5545,-82.1715,1.563,32.17,1111122 
SCCF RECON,ioos:station:SCCF:51:1,2011-09-10T23:00:00Z,26.5545,-82.1715,1.488,31.82,1111122 
SCCF RECON,ioos:station:SCCF:51:1,2011-09-11T00:00:00Z,26.5545,-82.1715,1.493,31.85,1111122 
SCCF RECON,ioos:station:SCCF:51:1,2011-09-11T01:00:00Z,26.5545,-82.1715,1.577,31.55,1111122 
SCCF RECON,ioos:station:SCCF:51:1,2011-09-11T02:00:00Z,26.5545,-82.1715,1.688,33.09,1111122 
SCCF RECON,ioos:station:SCCF:51:1,2011-09-11T03:00:00Z,26.5545,-82.1715,1.814,34.29,1111122 
SCCF RECON,ioos:station:SCCF:51:1,2011-09-11T04:00:00Z,26.5545,-82.1715,1.91,34.11,1111122 
SCCF RECON,ioos:station:SCCF:51:1,2011-09-11T05:00:00Z,26.5545,-82.1715,1.948,34.37,1111122 
SCCF RECON,ioos:station:SCCF:51:1,2011-09-11T06:00:00Z,26.5545,-82.1715,1.923,34.33,1111122 
SCCF RECON,ioos:station:SCCF:51:1,2011-09-11T07:00:00Z,26.5545,-82.1715,1.862,34.08,1111122 
SCCF RECON,ioos:station:SCCF:51:1,2011-09-11T08:00:00Z,26.5545,-82.1715,1.78,32.9,1111122 
SCCF RECON,ioos:station:SCCF:51:1,2011-09-11T09:00:00Z,26.5545,-82.1715,1.69,34.01,1111122 
SCCF RECON,ioos:station:SCCF:51:1,2011-09-11T10:00:00Z,26.5545,-82.1715,1.623,34.19,1111122 
SCCF RECON,ioos:station:SCCF:51:1,2011-09-11T11:00:00Z,26.5545,-82.1715,1.59,33.82,1111122 
SCCF RECON,ioos:station:SCCF:51:1,2011-09-11T12:00:00Z,26.5545,-82.1715,1.62,33.46,1111122 
SCCF RECON,ioos:station:SCCF:51:1,2011-09-11T13:00:00Z,26.5545,-82.1715,1.7,31.45,1111122 
SCCF RECON,ioos:station:SCCF:51:1,2011-09-11T14:00:00Z,26.5545,-82.1715,1.817,34.04,1111122 
SCCF RECON,ioos:station:SCCF:51:1,2011-09-11T15:00:00Z,26.5545,-82.1715,1.959,35.06,1111122 
SCCF RECON,ioos:station:SCCF:51:1,2011-09-11T16:00:00Z,26.5545,-82.1715,2.072,34.85,1111122 
SCCF RECON,ioos:station:SCCF:51:1,2011-09-11T17:00:00Z,26.5545,-82.1715,2.107,35.13,1111122 